www.pogodaiklimat.ru
ПОГОДА в Антверпене

Архив погоды в Антверпене (Бельгия)

Время
(UTC), дата
13 17.05
14 17.05
15 17.05
16 17.05
17 17.05
18 17.05
19 17.05
20 17.05
21 17.05
22 17.05
23 17.05
00 18.05
01 18.05
02 18.05
03 18.05
04 18.05
05 18.05
06 18.05
07 18.05
08 18.05
09 18.05
10 18.05
11 18.05
12 18.05
13 18.05
14 18.05
15 18.05
16 18.05
17 18.05
18 18.05
19 18.05
20 18.05
21 18.05
22 18.05
23 18.05
00 19.05
01 19.05
02 19.05
03 19.05
04 19.05
05 19.05
06 19.05
07 19.05
08 19.05
09 19.05
10 19.05
11 19.05
12 19.05
13 19.05
14 19.05
15 19.05
16 19.05
17 19.05
18 19.05
19 19.05
20 19.05
21 19.05
22 19.05
23 19.05
00 20.05
01 20.05
02 20.05
03 20.05
04 20.05
05 20.05
06 20.05
07 20.05
08 20.05
09 20.05
10 20.05
11 20.05
12 20.05
13 20.05
14 20.05
15 20.05
16 20.05
17 20.05
18 20.05
19 20.05
20 20.05
21 20.05
22 20.05
23 20.05
00 21.05
01 21.05
02 21.05
03 21.05
04 21.05
05 21.05
06 21.05
07 21.05
08 21.05
09 21.05
10 21.05
11 21.05
12 21.05
13 21.05
14 21.05
15 21.05
16 21.05
17 21.05
18 21.05
19 21.05
20 21.05
21 21.05
22 21.05
23 21.05
00 22.05
01 22.05
02 22.05
03 22.05
04 22.05
05 22.05
06 22.05
07 22.05
08 22.05
09 22.05
10 22.05
11 22.05
12 22.05
13 22.05
14 22.05
15 22.05
16 22.05
17 22.05
18 22.05
19 22.05
20 22.05
21 22.05
22 22.05
23 22.05
00 23.05
01 23.05
02 23.05
03 23.05
04 23.05
05 23.05
06 23.05
07 23.05
08 23.05
09 23.05
10 23.05
11 23.05
12 23.05
13 23.05
14 23.05
15 23.05
16 23.05
17 23.05
18 23.05
19 23.05
20 23.05
21 23.05
22 23.05
23 23.05
00 24.05
01 24.05
02 24.05
03 24.05
04 24.05
05 24.05
06 24.05
07 24.05
08 24.05
09 24.05
10 24.05
11 24.05
12 24.05
Ветер
(напр.,м/с)
Видим. Явления Облачность Т
(С)
Тd
(С)
f
(%)
Тe
(С)
Тes
(С)
Комфортность P
(гПа)
Po
(гПа)
Тmin
(С)
Tmax
(С)
R
(мм)
R24
(мм)
S
(см)
СЗ 6 {9} 20 км 8/6 900 м
[Cu Sc Ac trans Ci fib]
+17.0 +11.5 70 +16 +18 1009.2 1007.7
СЗ 7 {10} 20 км 6/6 750 м
[Cu Sc Ac trans Ci fib]
+16.9 +12.0 73 +16 +17 1009.2 1007.6
СЗ 7 {10} 20 км 6/6 750 м
[Cu Sc Ac trans Ci fib]
+16.7 +12.4 76 +15 +17 1009.1 1007.6
СЗ 6 {10} 20 км в посл. час ливневой дождь 8/6 570 м
[Cu Sc Ac trans Ci fib]
+15.9 +12.2 79 +15 +15 1009.2 1007.7
СЗ 6 {9} 7000 м слаб. дождь 10/9 420 м
[Sc diur, vesp]
+15.0 +13.0 88 +13 +13 1009.4 1007.9
СЗ 6 {10} 7000 м слаб. дождь 10/9 420 м
[Sc]
+14.9 +12.8 87 +13 +13 1009.6 1008.1 +18.5 1
СЗ 4 {9} 7000 м слаб. дождь 10/9 210 м
[Frnb]
+14.1 +12.8 92 +13 +13 1009.8 1008.3
СЗ 5 {7} 7000 м дождь 10/9 210 м
[Frnb]
+13.7 +12.8 94 +12 +12 1010.0 1008.5
СЗ 4 {9} 7000 м слаб. дождь {морось} 10/9 180 м
[Frnb]
+14.0 +13.0 94 +12 +12 1010.0 1008.4
СЗ 4 {8} 4900 м дымка 10/10 150 м +14.0 +13.1 94 +12 +12 1009.9 1008.4
СЗ 3 {6} 5000 м дымка 10/10 150 м +14.1 +13.1 94 +13 +13 1010.0 1008.5
З 2 {9} 4600 м дымка 10/10 180 м +14.0 +13.2 95 +13 +13 1010.2 1008.6 4
З 3 {4} 4500 м дымка 10/10 120 м +13.7 +12.7 94 +12 +12 1010.3 1008.8
З 3 {4} 4300 м дымка 10/10 120 м +13.5 +12.6 94 +12 +12 1010.2 1008.7
З 3 {4} 4300 м дымка 10/10 120 м +13.4 +12.5 94 +12 +12 1010.5 1008.9
З 3 {5} 5000 м дымка 10/10 180 м +13.3 +12.2 93 +12 +12 1010.7 1009.1
З 3 {6} 4000 м в посл. час дождь 10/9 240 м
[Frnb]
+13.1 +12.0 93 +12 +12 1011.0 1009.5
З 3 {6} 4000 м дымка 9/9 240 м
[Frnb]
+13.2 +12.0 92 +12 +12 1010.6 1009.1 +13.0 4
З 3 {5} 4000 м дымка 9/9 240 м
[Frnb]
+13.6 +12.3 92 +12 +13 1011.5 1009.9
СЗ 2 {4} 4000 м дымка 10/9 240 м
[Frnb]
+14.2 +12.7 91 +14 +14 1011.8 1010.2
З 3 {5} 4000 м дымка 9/9 240 м
[Frnb]
+14.3 +12.7 90 +13 +14 1012.0 1010.5
З 2 {4} 6000 м 10/9 240 м
[Frnb]
+14.6 +12.6 88 +14 +15 1012.2 1010.6
ЮЗ 2 {4} 6000 м 10/9 240 м
[St]
+15.0 +12.9 87 +15 +16 1012.3 1010.8
нст 1 {5} 7000 м 10/9 330 м
[St]
+15.5 +12.9 84 +16 +17 1012.4 1010.8
З 2 {4} 9000 м 8/6 480 м
[St]
+16.8 +13.6 81 +17 +22 1012.2 1010.7
СЗ 3 {5} 9000 м 6/5 540 м
[Cu Sc]
+16.6 +13.0 79 +16 +21 1011.8 1010.3
З 4 {5} 10 км 1/1 540 м
[Cu hum]
+17.5 +13.3 76 +17 +23 1011.3 1009.7
З 4 {7} 10 км 1/1 540 м
[Cb calv Ci fib]
+18.3 +13.5 74 +19 +22 1011.3 1009.7
СЗ 3 {6} 10 км 6/5 540 м
[Cb calv Ac trans Ci fib]
+17.1 +13.3 78 +17 +18 1011.7 1010.2
С 4 {7} 10 км осадки на расстоянии 8/5 540 м
[Cb calv Ac trans Ci fib]
+16.4 +12.9 80 +16 +16 1012.0 1010.4 +18.5
З 3 {6} 10 км слаб. ливневой дождь 6/4 540 м
[Cb calv Ac trans Ci fib]
+16.4 +13.2 81 +16 +16 1011.5 1010.0
З 4 {6} 10 км слаб. ливневой дождь 6/1 540 м
[Cb calv Ac trans Ci fib]
+15.8 +13.4 86 +15 +15 1011.2 1009.7
С 3 {6} 10 км осадки на расстоянии 6/3 360 м
[St Ac trans Ci fib]
+15.7 +13.3 86 +15 +15 1012.6 1011.0
З 4 {6} н/о ясно +14.5 +12.8 90 +13 +13 1011.7 1010.2
З 4 {7} 5000 м дымка 10/10 180 м +13.7 +12.3 91 +12 +12 1011.8 1010.2
СЗ 4 {7} 4900 м дымка 10/10 180 м +13.1 +11.8 92 +11 +11 1011.9 1010.4
З 4 {6} 4700 м дымка 10/10 180 м +13.1 +11.8 92 +11 +11 1011.6 1010.1
СЗ 4 {6} н/о 10/10 180 м +13.2 +11.8 91 +11 +11 1011.5 1010.0
З 3 {6} 5000 м дымка 10/10 180 м +13.0 +11.6 91 +12 +12 1011.5 1009.9
З 4 {5} 5000 м дымка 10/10 180 м +12.7 +11.3 91 +11 +11 1011.8 1010.2
З 4 {5} 4500 м дымка 10/10 180 м
[St]
+12.5 +11.0 91 +10 +10 1011.9 1010.3
З 4 {6} 4500 м дымка 10/10 180 м
[St]
+12.6 +11.2 91 +11 +11 1012.2 1010.6 +12.4
З 3 {5} 4500 м дымка 10/10 180 м
[St]
+13.0 +11.5 91 +12 +12 1012.7 1011.1
З 3 {4} 4500 м дымка 10/10 180 м
[St]
+13.4 +11.6 89 +12 +12 1012.9 1011.3
З 3 {5} 4500 м дымка 10/10 270 м
[St]
+14.6 +12.3 86 +14 +14 1012.9 1011.4
З 2 {6} 6000 м 9/9 330 м
[St]
+15.4 +12.1 81 +15 +17 1012.8 1011.3
З 3 {5} 8000 м 3/3 480 м
[St]
+17.2 +12.3 73 +17 +27 1012.7 1011.2
нст 2 {6} 8000 м 3/3 480 м
[St]
+19.2 +13.1 68 +21 +33 комфорт 1012.5 1011.0
нст 3 {6} 10 км 3/3 800 м
[Cu hum]
+20.3 +13.2 64 +23 +32 комфорт 1012.1 1010.5
З 5 {8} 10 км 4/4 930 м
[Cu Sc Ac trans Ci fib]
+19.6 +12.0 61 +21 +25 комфорт 1011.2 1009.7
СЗ 5 {8} 10 км 6/5 930 м
[Cb calv Ac trans Ci fib]
+19.5 +10.9 58 +20 +23 1011.6 1010.1
С 3 {7} 50 км слаб. ливневой дождь 6/5 1080 м
[Cb calv Ac trans Ci ing]
+18.0 +11.5 66 +18 +20 1011.4 1009.9
С 5 {7} 50 км в посл. час ливневой дождь 6/4 1080 м
[Cb calv Ac trans Ci ing]
+18.3 +13.2 72 +18 +19 1011.2 1009.7
СЗ 3 {8} 50 км {ливн. дождь} 8/0
[Ac trans Ci ing]
+16.6 +10.4 67 +16 +17 1011.2 1009.6 +21.0 0.2
СЗ 1 {4} 50 км 9/0
[Ac trans Ci sp]
+15.9 +11.5 75 +17 +17 1011.6 1010.0
нст 2 {7} 40 км 8/3 1500 м
[Cu med, cong Ac cast Ci sp]
+16.1 +11.8 76 +16 +16 1012.1 1010.6
штиль 0 {7} 40 км 6/5 1500 м
[Sc diur, vesp Ac trans Ci sp]
+15.4 +11.8 79 +15 +15 1012.4 1010.8
ЮЗ 1 {2} 50 км 10/10 1500 м +14.8 +12.3 85 +15 +15 1012.3 1010.8
З 1 {2} 50 км н/о +14.6 +12.0 84 +15 +15 1012.2 1010.7
СЗ 2 {7} 30 км н/о +14.2 +11.7 85 +14 +14 1012.3 1010.7
С 3 {4} 19 км н/о +13.8 +11.4 85 +13 +13 1012.2 1010.6
С 2 {4} 12 км н/о +13.1 +11.5 90 +12 +12 1012.0 1010.5
С 2 {4} н/о 10/10 1500 м +13.2 +11.9 92 +12 +12 1012.1 1010.5
СЗ 1 {4} 3900 м дымка 10/0 2000 м +13.2 +12.4 95 +13 +13 1011.9 1010.3
СЗ 1 {3} 5000 м в посл. час ливневой дождь 9/9 2000 м
[Sc]
+13.5 +12.6 94 +14 +14 1012.2 1010.6
С 3 {4} 4000 м дымка {ливн. дождь} 9/5 150 м
[Cu Sc Ac trans Ci sp]
+14.6 +13.5 93 +14 +14 1012.3 1010.7 +12.9 1
СЗ 4 {6} 5000 м дымка 10/10 180 м
[St]
+14.3 +13.2 93 +13 +13 1012.6 1011.0
С 2 {6} 8000 м слаб. дождь 9/9 270 м
[Cu Sc]
+15.2 +13.3 88 +15 +16 1012.6 1011.0
С 3 {6} 12 км 9/1 450 м
[Cu Sc Ac trans]
+15.7 +12.5 81 +15 +19 1012.7 1011.1
С 2 {5} 15 км 8/5 600 м
[Cu hum Ac trans Ci sp]
+17.0 +12.7 76 +17 +22 1012.5 1010.9
С 4 {6} 20 км 8/8 720 м
[Cu Sc Ac trans Ci sp]
+18.0 +12.4 70 +18 +20 1012.2 1010.7
С 3 {7} 25 км 8/3 800 м
[Cu Sc Ac trans Ci sp]
+18.2 +11.7 66 +19 +25 1011.8 1010.3
С 3 {6} 25 км 8/4 750 м
[Cu Sc Ac trans Ci sp]
+19.2 +13.7 70 +21 +26 комфорт 1011.3 1009.8
С 4 {6} 20 км осадки на расстоянии 8/5 750 м
[Cb calv Ac trans Ci sp]
+17.0 +12.7 76 +17 +20 1011.0 1009.5
С 3 {6} 20 км в посл. час ливневой дождь 6/4 600 м
[Cu Sc Ac trans Ci sp]
+18.4 +14.5 78 +19 +23 1010.6 1009.1
С 2 {6} 20 км 3/1 600 м
[Cu Sc Ci sp]
+18.7 +13.8 73 +20 +25 1010.3 1008.8
СЗ 5 {7} 30 км 1/1 750 м
[Cu hum Ac trans]
+18.2 +13.2 73 +18 +20 1010.1 1008.6
С 3 {7} 30 км {ливн. дождь} 1/1 540 м
[Cu hum]
+17.6 +13.0 74 +18 +19 1010.0 1008.5 +19.7
С 3 {5} 30 км 1/1 600 м
[Cu hum]
+17.0 +13.8 81 +17 +17 1010.2 1008.7
С 1 {4} 30 км ясно +16.0 +13.3 84 +17 +17 1010.3 1008.8
С 2 {5} 30 км ясно +15.6 +13.4 87 +15 +15 1010.4 1008.9
С 2 {3} 26 км н/о +15.2 +13.2 88 +15 +15 1010.0 1008.5
СЗ 1 {3} 11 км н/о +14.7 +13.3 91 +15 +15 1009.9 1008.4
С 1 {5} н/о н/о +14.1 +13.0 93 +14 +14 1009.7 1008.2
С 2 {3} 12 км н/о +13.9 +12.9 94 +13 +13 1009.3 1007.7
С 1 {2} 12 км ясно +13.4 +12.4 94 +13 +13 1008.7 1007.2
С 1 {3} 10 км н/о +12.6 +11.8 95 +13 +13 1008.4 1006.8
С 1 {2} 11 км ясно +13.4 +12.5 94 +13 +13 1008.2 1006.6
СВ 2 {3} 8000 м 9/0
[Ac trans]
+14.6 +13.3 92 +14 +14 1008.2 1006.6
СВ 2 {4} 10 км 9/0
[Ac trans Ci sp]
+15.4 +13.5 88 +15 +17 1008.0 1006.4 +12.6
В 2 {4} 10 км 9/0
[Ac trans Ci sp]
+16.5 +13.9 85 +17 +20 1008.1 1006.6
ЮВ 2 {3} 15 км 9/0
[Ac trans Ci sp]
+18.1 +13.9 76 +19 +25 1008.1 1006.6
нст 1 {4} 15 км 8/0
[Ac trans Ci sp]
+19.8 +13.6 67 +23 +34 комфорт 1008.0 1006.5
ЮВ 2 {4} 25 км 9/3 840 м
[Cu hum Ci sp]
+20.7 +13.5 63 +24 +32 комфорт 1008.0 1006.5
ЮЗ 5 {8} 25 км 10/1 870 м
[Cu Sc Ac As]
+20.1 +14.2 69 +22 +24 комфорт 1008.3 1006.7
ЮЗ 4 {8} 15 км 9/1 600 м
[Cu hum Ac trans Cs]
+19.3 +13.4 69 +21 +26 комфорт 1008.4 1006.9
ЮЗ 5 {9} 25 км 10/1 720 м
[Cu Sc Ac As]
+19.1 +13.1 68 +20 +22 1008.1 1006.6
З 4 {8} 25 км слаб. дождь 10/4 840 м
[Cu Sc Ac As]
+17.8 +13.1 74 +18 +19 1008.0 1006.5
З 4 {9} 25 км слаб. дождь 10/3 1050 м
[Cu Sc Ac As]
+17.3 +13.8 80 +17 +18 1007.6 1006.1
З 3 {5} 25 км слаб. дождь 10/1 1140 м
[Cu Sc Ac As]
+17.3 +14.0 81 +17 +19 1007.3 1005.8
З 2 {5} 25 км слаб. дождь 10/1 1200 м
[Cu Sc Ac As]
+17.2 +13.4 78 +18 +18 1007.2 1005.7
З 3 {9} 15 км слаб. дождь 10/1 1200 м
[Cu Sc Ac As]
+16.5 +13.9 85 +16 +16 1007.0 1005.5 +21.5
З 1 {5} 7000 м слаб. дождь 9/1 330 м
[St Ac As]
+16.1 +14.4 90 +17 +17 1007.2 1005.6
СЗ 1 {3} 6000 м дождь 9/4 210 м
[St Ac As]
+15.5 +14.2 92 +16 +16 1007.1 1005.5
З 2 {5} 6000 м дождь 9/0 2000 м
[Ac As]
+15.2 +14.2 94 +15 +15 1007.1 1005.6
СЗ 2 {3} 17 км слаб. дождь ясно +14.9 +13.7 93 +15 +15 1006.7 1005.1
З 1 {3} 7000 м слаб. дождь ясно +14.8 +13.9 94 +15 +15 1006.4 1004.9
ЮЗ 2 {5} 2600 м слаб. дождь 9/9 90 м +14.6 +13.7 94 +14 +14 1006.1 1004.6 5
З 3 {4} 2600 м дымка 10/10 120 м +14.6 +13.8 95 +14 +14 1006.1 1004.5
З 4 {7} 3200 м дымка 9/9 180 м +14.4 +13.4 94 +13 +13 1005.9 1004.4
З 3 {7} н/о 10/10 210 м +14.2 +12.8 91 +13 +13 1006.0 1004.4
ЮЗ 4 {8} 5000 м дымка 10/10 400 м +13.7 +12.3 91 +12 +12 1006.2 1004.7
ЮЗ 3 {7} 6000 м 9/9 270 м
[Cu Sc]
+13.8 +12.3 91 +13 +13 1006.5 1005.0
ЮЗ 4 {8} 6000 м {дождь, морось} 9/9 330 м
[Cu Sc]
+14.0 +11.9 87 +13 +13 1006.8 1005.3 +13.7 5
ЮЗ 4 {8} 10 км 9/9 420 м
[Cu Sc]
+14.1 +11.8 86 +13 +13 1007.4 1005.8
ЮЗ 5 {8} 10 км 10/9 330 м
[Cu Sc]
+14.1 +11.8 86 +12 +13 1007.9 1006.4
Ю 4 {8} 10 км 9/9 480 м
[Cu Sc]
+14.9 +11.6 81 +14 +15 1008.3 1006.8
ЮЗ 5 {9} 10 км 9/9 540 м
[Cu Sc]
+15.6 +11.2 75 +14 +15 1008.7 1007.1
ЮЗ 5 {9} 30 км 9/9 660 м
[Cu Sc]
+15.9 +11.1 73 +15 +16 1009.2 1007.7
Ю 5 {9} 30 км 6/6 800 м
[Cu Sc Ac trans Ci fib]
+16.9 +11.1 69 +16 +20 1009.4 1007.8
ЮЗ 5 {10} 30 км 4/4 870 м
[Cu Sc Ac trans Ci fib]
+18.7 +11.5 63 +19 +24 1009.3 1007.7
ЮЗ 6 {9} 30 км слаб. ливневой дождь 6/6 1170 м
[Sc Ac trans Ci fib]
+18.5 +10.5 60 +18 +21 1009.6 1008.0
Ю 5 {10} 30 км 6/3 1080 м
[Sc Ac trans Ci fib]
+17.2 +11.8 71 +17 +19 1010.0 1008.5
ЮЗ 4 {8} 30 км 4/4 1080 м
[Cu Sc Ac trans Ci fib]
+18.6 +12.2 66 +19 +22 1010.1 1008.5
ЮЗ 6 {9} 50 км 5/5 960 м
[Cu Sc]
+18.3 +10.3 60 +18 +19 1010.3 1008.7
ЮЗ 4 {10} 40 км {ливн. дождь} 4/4 960 м
[Cu Sc Ac trans]
+17.8 +10.3 61 +18 +18 1010.4 1008.9 +20.0
ЮЗ 4 {10} 40 км 1/1 960 м
[Cu hum]
+17.2 +9.3 60 +17 +17 1011.0 1009.5
ЮЗ 3 {8} 40 км ясно +16.1 +9.3 64 +16 +16 1011.7 1010.2
ЮЗ 3 {10} 40 км ясно +15.4 +9.6 68 +15 +15 1012.4 1010.9
Ю 2 {4} 55 км н/о +14.5 +9.7 73 +14 +14 1012.8 1011.3
Ю 3 {6} 50 км н/о +13.9 +9.8 76 +13 +13 1013.1 1011.5
Ю 3 {10} 50 км н/о +13.5 +9.9 79 +12 +12 1013.2 1011.6
Ю 3 {4} 35 км н/о +12.8 +9.9 83 +11 +11 1013.2 1011.7
Ю 3 {5} 35 км н/о +12.7 +10.0 84 +11 +11 1013.2 1011.7
ЮЗ 3 {7} 35 км 10/10 450 м +12.8 +10.4 85 +11 +11 1013.2 1011.6
ЮЗ 4 {7} 35 км 10/10 720 м +12.7 +10.3 85 +11 +11 1013.2 1011.7
ЮЗ 3 {6} 40 км 4/4 720 м
[Sc Ci fib]
+12.8 +10.3 85 +11 +12 1013.7 1012.1
ЮЗ 3 {7} 40 км 8/8 720 м
[Sc Ci fib]
+13.7 +10.7 82 +13 +13 1014.2 1012.7 +12.3
ЮЗ 3 {7} 40 км 6/3 450 м
[Cu hum Ac trans Ci fib]
+14.6 +11.1 80 +14 +16 1014.5 1012.9
ЮЗ 5 {8} 40 км 8/6 800 м
[Sc Ac trans]
+15.4 +11.2 76 +14 +15 1014.8 1013.3
ЮЗ 4 {8} 40 км 6/6 750 м
[Sc Ac trans]
+16.2 +10.8 70 +16 +19 1015.2 1013.6
ЮЗ 5 {8} 40 км 8/6 750 м
[Sc Ac trans Ci fib]
+17.0 +11.2 69 +16 +19 1015.4 1013.9
ЮЗ 4 {7} 40 км слаб. ливневой дождь 6/4 720 м
[Cu hum Ac trans Ci fib]
+17.1 +11.9 71 +17 +22 1015.5 1013.9
ЮЗ 5 {8} 40 км 8/3 720 м
[Cu med, cong Ac trans Ci fib]
+17.9 +11.2 65 +18 +22 1015.6 1014.0
З 4 {8} 40 км в посл. час ливневой дождь 6/3 720 м
[Cu med, cong Ac trans]
+17.2 +14.2 83 +17 +22 1015.3 1013.8
ЮЗ 4 {7} 40 км в посл. час ливневой дождь 6/3 930 м
[Cu med, cong Ac trans Ci fib]
+18.6 +11.9 65 +19 +24 1015.3 1013.7
ЮЗ 2 {8} 40 км осадки на расстоянии 6/4 960 м
[Cu hum Ac trans Ci fib]
+18.7 +11.9 65 +20 +25 1015.3 1013.8
ЮЗ 5 {8} 40 км осадки на расстоянии 6/4 960 м
[Cu hum Ac trans Ci fib]
+18.6 +11.4 63 +19 +21 1015.4 1013.9
СЗ 4 {8} 50 км 8/5 1020 м
[Cu med, cong Ac trans]
+17.5 +11.8 69 +17 +18 1015.7 1014.1
С 1 {8} 50 км {ливн. дождь} 4/1 1020 м
[Cu Sc Ac trans Ci fib]
+17.6 +11.7 68 +19 +20 1015.8 1014.2 +19.6 0.9
В 2 {2} 50 км 1/1 1020 м
[Cu hum Ci fib]
+16.1 +11.4 74 +16 +16 1016.0 1014.5
В 1 {3} 50 км 1/1 1020 м
[Cu hum Ci fib]
+14.1 +11.9 87 +14 +14 1016.8 1015.2
ЮВ 2 {3} 50 км 4/0
[Ci fib]
+13.2 +11.6 90 +12 +12 1017.1 1015.5
ЮВ 2 {4} 29 км 10/0 2000 м +13.5 +11.4 87 +13 +13 1017.3 1015.7
В 2 {3} 20 км н/о +12.5 +10.4 87 +12 +12 1017.5 1015.9
ЮВ 2 {4} 12 км н/о +11.1 +9.9 92 +10 +10 1017.8 1016.2
нст 1 {2} 16 км н/о +11.9 +10.9 94 +12 +12 1017.7 1016.1
З 1 {2} н/о ясно +11.6 +11.0 96 +11 +11 1017.7 1016.1
З 1 {2} 13 км н/о +12.0 +10.9 93 +12 +12 1017.7 1016.1
З 2 {2} 35 км ясно +12.3 +10.8 91 +11 +11 1017.6 1016.1
З 1 {2} 20 км 10/1
[Sc As trans]
+13.3 +11.3 88 +13 +14 1018.0 1016.4
З 1 {3} 20 км 9/6 1500 м
[Sc As trans]
+14.1 +11.2 83 +14 +15 1018.3 1016.7 +10.0
З 1 {1} 20 км 10/8 1500 м
[Sc As trans]
+14.7 +11.3 80 +15 +16 1018.6 1017.1
СЗ 1 {2} 15 км 10/9 1500 м
[Sc]
+15.5 +11.5 77 +16 +17 1018.9 1017.3
СВ 2 {3} 12 км 10/10 1500 м
[Sc]
+16.0 +12.0 77 +16 +16 1019.0 1017.5
В 2 {3} 4500 м слаб. дождь 10/10 600 м
[Sc]
+15.0 +12.9 87 +15 +15 1019.5 1018.0
СВ 1 {3} 8000 м слаб. дождь {ливн. дождь} 10/10 360 м
[Sc]
+14.4 +13.1 92 +15 +15 1019.6 1018.1
В 1 {3} 2500 м ливневой дождь 10/10 270 м
[Cu Sc]
+14.1 +12.6 91 +14 +14 1019.7 1018.1 8
Местоположение метеостанции Антверпен (Бельгия): широта 51.20 долгота 4.47 высота над уровнем моря 14 м.
В архиве по умолчанию представлена погода в Антверпене за последнюю неделю. Архивные данные за месяц целиком и за предыдущие месяцы, начиная с января 2011 года, Вы можете получить, выбрав интересующий диапазон дат из раскрывающегося списка и нажав кнопку "Найти!".
*Определитесь, кто Вы:
Внимание! Время в таблицах - всемирное. Для получения местного времени необходимо прибавить поправку, которая равна 1 ч.
Некоторые строки с данными для отдельных станций могут быть выделены курсивом. Это означает, что фактические данные отсутствуют по различным причинам, а приведенные значения являются расчетными модельными данными для данного пункта наблюдений.
Смотрите также архив погоды в соседних городах и на ближайших метеорологических станциях:
Партнеры нашего сайта:      
Пояснения к столбцам:
  • Ветер - указаны скорость ветра в м/с - средняя за 10 мин, порывы в срок и между сроками (в фигурных скобках) и направление, откуда дует ветер: С - северный,
  • СВ - северо-восточный, В - восточный, ЮВ - юго-восточный, Ю - южный, ЮЗ - юго-западный, З - западный, СЗ - северо-западный.
  • Видимость - горизонтальная дальность видимости в метрах или километрах. При видимости от 1 до 10 км при отсутствии осадков обычно наблюдается дымка, при ухудшении видимости до 1 км и менее - туман. В сухую погоду видимость может ухудшаться дымом, пылью или мглою.
  • Явления - указаны атмосферные явления, наблюдавшиеся в срок или в последний час перед сроком; фигурными скобками обозначены явления, наблюдавшиеся между сроками (за 1-3 часа до срока); квадратными скобками обозначены град или гололедные отложения с указанием их диаметра в мм.
  • Облачность - указаны через наклонную черту общая и нижняя облачность в баллах и высота нижней границы облаков в метрах; квадратными скобками обозначены формы облаков: Ci - перистые, Cs - перисто-слоистые, Cc - перисто-кучевые, Ac - высококучевые, As - высокослоистые, Sc - слоисто-кучевые, Ns - слоисто-дождевые, Cu - кучевые, Cb - кучево-дождевые. Подробнее классификацию облаков см. в Атласе облаков (PDF).
  • T - Температура воздуха - температура, измеренная на высоте 2 м над землей.
  • Td - Температура точки росы - температура, при понижении до которой содержащийся в воздухе водяной пар достигнет насыщения.
  • f - Относительная влажность воздуха - влажноcть воздуха, измеренная на высоте 2 м над землей.
  • Te - Эффективная температура - температура, которую ощущает одетый по сезону человек в тени. Характеристика душности погоды. При расчете учитывается влияние влажности воздуха и скорости ветра на теплоощущения человека.
  • Tes - Эффективная температура на солнце - температура, которую ощущает человек, с поправкой на солнечный нагрев. Характеристика знойности погоды. Зависит от высоты солнца над горизонтом, облачности и скорости ветра. Ночью, в пасмурную погоду, а также при ветре 12 м/с и более поправка равна нулю.
  • P - Атмосферное давление - приведенное к уровню моря атмосферное давление.
  • Po - Атмосферное давление - измеренное на уровне метеостанции атмосферное давление.
  • Tmin - Минимальная температура - минимум температуры воздуха на высоте 2 м над землей.
  • Tmax - Максимальная температура - максимум температуры воздуха на высоте 2 м над землей.
  • R - Количество осадков - Количество выпавших осадков за период времени, мм. При наведении курсора мыши на число - период времени, за который выпало указанное количество осадков.
  • R24 - Количество осадков - Количество выпавших осадков за 24 часа, мм.
  • S - Снежный покров - Высота снежного покрова, см. При наведении курсора мыши на число - состояние снежного покрова и степень покрытия местности в баллах.